Regional Weather Roundup
Issued by NWS

Home | Current Version | Previous Version | Text Only | Print | Product List | Glossary On
Versions: 1 2 3 4 5 6 7 8 9 10 11 12 13 14 15 16 17 18 19 20 21 22 23 24 25 26 27 28 29 30 31 32 33 34 35 36 37 38 39 40 41 42 43 44 45 46 47 48 49 50
000
ASUS45 KREV 310710
RWRNV
NEVADA REGIONAL WEATHER ROUNDUP
NATIONAL WEATHER SERVICE RENO NV
1200 AM PDT FRI JUL 31 2015

NOTE: "FAIR" INDICATES FEW OR NO CLOUDS BELOW 12,000 FEET WITH NO
SIGNIFICANT WEATHER AND/OR OBSTRUCTIONS TO VISIBILITY.

NVZ001-003-004-310800-
WESTERN NEVADA

CITY           SKY/WX    TMP DP  RH WIND       PRES   REMARKS
RENO           MOCLDY    83  35  18 CALM      30.20R
CARSON CITY    FAIR      79  37  22 NW5       30.23R
MINDEN         FAIR      66  43  42 NE3       30.23R
SLIDE MTN        N/A     64  34  32 NE10        N/A
PYRAMID LAKE     N/A     84 N/A N/A W10         N/A
FALLON         PTCLDY    75  28  17 CALM      30.14R
LOVELOCK       PTCLDY    69  28  21 SW3       30.14R
HAWTHORNE      CLEAR     81  41  24 SE15      30.18F
$$

NVZ002-CAZ072-073-310800-
NORTHERN AND CENTRAL SIERRA

CITY           SKY/WX    TMP DP  RH WIND       PRES   REMARKS
S. LAKE TAHOE  PTCLDY    64  43  46 S3        30.35F
TRUCKEE        MOCLDY    61  43  51 CALM      30.35R
SQUAW VLY 8000   N/A     64  32  29 NW2         N/A
SUSANVILLE     CLEAR     75  36  23 W6        30.20S
BLUE CANYON    PTCLDY    73  38  27 E5        30.31R
MAMMOTH LAKES  LGT RAIN  64  41  42 S9        30.46S
BRIDGEPORT     FAIR      61  38  42 CALM      30.40S
$$

NVZ030-031-036-310800-
NORTHERN NEVADA

CITY           SKY/WX    TMP DP  RH WIND       PRES   REMARKS
ELKO           PTCLDY    73  24  16 NE10      30.28S
WINNEMUCCA     CLEAR     78  23  13 NE14      30.19
WENDOVER       PTCLDY    72  30  21 SW5       30.23S
$$

NVZ035-037-310800-
CENTRAL NEVADA

CITY           SKY/WX    TMP DP  RH WIND       PRES   REMARKS
ELY            MOCLDY    61  25  25 S8        30.35R
EUREKA           N/A     63  20  19 CALM      30.32S
$$

NVZ013-014-310800-
SOUTH CENTRAL NEVADA

CITY           SKY/WX    TMP DP  RH WIND       PRES   REMARKS
TONOPAH        CLOUDY    76  32  20 N13       30.26S
$$

NVZ017-020-022-310800-
SOUTHERN NEVADA

CITY           SKY/WX    TMP DP  RH WIND       PRES   REMARKS
LAS VEGAS      CLOUDY    92  52  25 SW10      29.98F
N. LAS VEGAS   CLOUDY    92  53  26 W8        30.00F
NELLIS AFB     CLOUDY    92  55  28 W7        29.99F
HENDERSON      CLOUDY    89  54  30 SE3       30.06F
MERCURY        CLOUDY    87  49  26 CALM      30.10R
$$


USA.gov is the U.S. government's official web portal to all federal, state and local government web resources and services.